Погода в Монополи

Италия     40°56′53″N   17°17′26″E
темп.,
°C
ветер,
м/с
пор.,
м/с
влажн.,
%
обл.,
%
осадки,
мм/ч
давл.,
гПа
погр.,
м
19 апреля, пн
пн1923:00+11зюз227591 0.6 1015163
02:00+10зюз3388100 1.0 1014165
05:00+10зсз3488100 2.0 1013235
08:00+11с678398 5.1 1013677
11:00+12ссз5568100 0.9 1014970
14:00+11ссз6675100 1.2 1014728
17:00+12ссз557284 0.3 1013846
20:00+11сз56755 0.3 1014565
20 апреля, вт
вт2023:00+10зсз45785 0.1 1015357
02:00+9з46817 0.1 1015297
05:00+9з45795 0.0 1016311
08:00+10з45745 0.0 1017334
11:00+13ссз346137 0.1 1017817
14:00+12ссв226692 0.3 1018363
17:00+13вюв226392 0.2 1017430
20:00+11ю4478100 1.1 1018168
21 апреля, ср
ср2123:00+11ююз577517 0.0 1019176
02:00+11зюз56775 0.0 1019138
05:00+10зюз33755 0.0 1019127
08:00+12з11700 0.0 1020182
11:00+13всв22675 0.0 1021520
14:00+14в54675 0.1 1020403
17:00+14вюв6771100 0.1 1019478
20:00+13ююв467734 0.1 1019140
22 апреля, чт
чт2223:00+12ю47795 0.0 1020199
02:00+12ююв477627 0.0 1020204
05:00+11ююв3673100 0.0 1019192
08:00+13ююв5878100 0.0 1020410
11:00+16юв6770100 0.0 1019375
14:00+17ююв7967100 0.0 1018432
17:00+17ю81065100 0.1 1017386
20:00+15ю101572100 0.3 1017469
23 апреля, пт
пт2323:00+14ю111578100 0.0 1016400
02:00+14ююз101383100 0.1 1016298
05:00+14ююз4786100 0.1 1015284
08:00+13ююз4689100 2.4 1016344
11:00+13ю61086100 2.6 1017522
14:00+13вюв3590100 7.4 1016290
17:00+12всв6796100 4.9 1015393
20:00+12всв7795100 10.1 1014528